Location: Bathsheba
(13.2167°N, 59.5167°W)
Time: 23:17:00
(UTC+00:00)

Cosmos 1932 - Pass Details

Date: 18 September 2020
Orbit: 925 x 1005 km, 65.0° (Epoch: 20 October)

Event Time Altitude Azimuth Distance (km) Brightness Sun altitude
Rises 23:21:37 0° 336° (NNW) 3,655 7.9 -21.5°
Reaches altitude 10° 23:24:11 10° 335° (NNW) 2,696 7.2 -22.1°
Maximum altitude 23:30:30 83° 248° (WSW) 958 4.4 -23.6°
Enters shadow 23:34:18 25° 162° (SSE) 1,796 5.6 -24.5°
